Powrót do katalogu

FLOCK 4H 9

AktywnyNaukaSSO
NORAD 66712·PAYLOAD·🇺🇸 United States

Wystrzelony Nov 28, 2025 z Vandenberg Space Force Base

Loading…

Następne Przeloty (najbliższe 24 godziny)

TLE

ŚwieżeSource: CelesTrak SupGP

Epoka: Sep 14, 2026, 12:45 UTC

1 66712C 25276AY  26257.53136574  .00008938  00000+0  39833-3 0  2573
2 66712  97.4143 329.9214 0004094  50.0011 233.3821 15.21486622    16

Śledź FLOCK 4H 9 w czasie rzeczywistym z AllMySat

Download on the App Store